nict.go.jp alexa rank chart, nict.go.jp alexa rank daily changes

nict.go.jp alexa rank chart, nict.go.jp alexa rank daily changes

nict.go.jp
Actual rank:
33 447

RANK HISTORY

Date Rank Diff
2017/10/16 33 447 +1 526
2017/10/14 31 921 +768
2017/10/13 31 153 +533
2017/10/12 30 620 +569
2017/10/11 30 051 +743
2017/10/10 29 308 +1 722
2017/10/09 27 586 +2 421
2017/10/08 25 165 +615
2017/10/07 24 550 +364
2017/10/06 24 186 +35
2017/10/05 24 151 +13
2017/10/04 24 138 +182
2017/10/03 23 956 +511
2017/10/02 23 445 +8
2017/10/01 23 437 -166
2017/09/30 23 603 +468
2017/09/29 23 135 +68
2017/09/28 23 067 +78
2017/09/27 22 989 +492
2017/09/26 22 497 +146
2017/09/25 22 351 -18
2017/09/24 22 369 +22
2017/09/23 22 347 -223
2017/09/22 22 570 -64
2017/09/20 22 634 +108
2017/09/19 22 526 +21
2017/09/18 22 505 -43
2017/09/17 22 548 -322
2017/09/16 22 870 -412
2017/09/15 23 282 -201
2017/09/14 23 483 -688
2017/09/13 24 171 -769
2017/09/12 24 940 +206
2017/09/11 24 734 -58
2017/09/10 24 792 -487
2017/09/09 25 279 -2 323
2017/09/08 27 602 -394
2017/09/07 27 996 -615
2017/09/06 28 611 +188
2017/09/05 28 423 +585
2017/09/04 27 838 +217
2017/09/03 27 621 -29
2017/09/02 27 650 +258
2017/09/01 27 392 -72
2017/08/31 27 464 +290
2017/08/30 27 174 -116
2017/08/29 27 290 +207
2017/08/28 27 083 +189
2017/08/27 26 894 -836
2017/08/26 27 730 +327
2017/08/25 27 403 +608
2017/08/24 26 795 -283
2017/08/23 27 078 -410
2017/08/22 27 488 +120
2017/08/21 27 368 +55
2017/08/20 27 313 +169
2017/08/19 27 144 -420
2017/08/18 27 564 +137
2017/08/17 27 427

WIDGET FOR YOUR SITE

DOMAINS WITH THE NEAREST RANK

Domain Rank
g2g.com 33 442
videosdemaduras.xxx 33 443
humankinetics.com 33 444
thebillioncoin.info 33 445
tributes.com 33 446
nict.go.jp 33 447
ilgeniodellostreaming.cc 33 448
0a0a0.cc 33 449
salarycalculator.sinaapp.com 33 450
teamviewer.us 33 451
uniplaces.com 33 452

DOMAINS WITH THE NEAREST RANK BY TLD .go.jp

Domain Rank
customs.go.jp 27 486
pmda.go.jp 29 946
immi-moj.go.jp 31 785
mod.go.jp 32 118
ur-net.go.jp 32 873
nict.go.jp 33 447
nims.go.jp 33 739
cao.go.jp 35 064
env.go.jp 35 983
affrc.go.jp 38 243
gsi.go.jp 38 394